Portada
METAR-TAF:

METAR-TAF

Aeroports :

Pontianak, Indonèsia

latitud: 00-09S, longitud: 109-24E, altitud: 3 m

Observació

L'informe es va fer fa 10 hores i 15 minuts, a les 12:30 UTC
Vent calma
Temperatura 25°C
Humitat 100%
Pressió 1010 hPa
Visibilitat: 4000 m
Escasses núvols a una alçada de 1000 ft, Cumulonimbus.
Cel ennuvolat a una alçada de 1100 ft
pluja

METAR: WIOO 111230Z 00000KT 4000 -RA FEW010CB BKN011 25/25 Q1010 NOSIG

Hora: 05:45 (22:45 UTC)


TAF: manca

Observacions i pronòstics meteorològics de més de 4000 aeroports (METAR i TAF).

Les estacions disponibles són els punts grocs i vermells al mapa.

Posi el ratolí al punt desitjat per veure el nom de l'estació.

Feu clic per veure les observacions i els pronòstics meteorològics.

Per canviar el mapa: feu clic els botons verds amb una creu de color negre per apropar; al botó verd amb un guió per allunyar la imatge; o en les fletxes verdes per a mapes adjacents.


METAR-TAF: